| time (UTC) | temp F | wind direction | speed knots | gust knots | rain 1hr in | rain 24hr in | rain mn in | humidity % | barometer mb |
| 20260506044718 | 54 | 149 | 0.0 | 0.0 | 0.00 | 0.00 | 0.00 | 91 | 1018.6 |
| 20260506044215 | 54 | 149 | 0.0 | 0.0 | 0.00 | 0.00 | 0.00 | 91 | 1018.8 |
| 20260506043712 | 54 | 149 | 0.0 | 0.0 | 0.00 | 0.00 | 0.00 | 90 | 1018.8 |
| 20260506043210 | 55 | 149 | 0.0 | 0.0 | 0.00 | 0.00 | 0.00 | 90 | 1018.4 |
| 20260506042709 | 55 | 149 | 0.0 | 0.0 | 0.00 | 0.00 | 0.00 | 90 | 1018.6 |
| 20260506042206 | 55 | 149 | 0.0 | 0.0 | 0.00 | 0.00 | 0.00 | 89 | 1018.5 |
| 20260506041704 | 55 | 141 | 0.0 | 0.0 | 0.00 | 0.00 | 0.00 | 89 | 1018.4 |
| 20260506041201 | 55 | 148 | 0.0 | 0.9 | 0.00 | 0.00 | 0.00 | 89 | 1018.4 |
| 20260506040659 | 55 | 152 | 0.0 | 0.9 | 0.00 | 0.00 | 0.00 | 88 | 1018.4 |
| 20260506040155 | 56 | 157 | 0.9 | 0.9 | 0.00 | 0.00 | 0.00 | 88 | 1018.4 |
| 20260506035652 | 56 | 150 | 0.0 | 0.0 | 0.00 | 0.00 | 0.00 | 87 | 1018.3 |
| 20260506035149 | 56 | 181 | 0.9 | 0.9 | 0.00 | 0.00 | 0.00 | 87 | 1018.3 |
| 20260506034646 | 56 | 148 | 0.0 | 0.9 | 0.00 | 0.00 | 0.00 | 87 | 1018.4 |
| 20260506034143 | 57 | 142 | 0.9 | 1.7 | 0.00 | 0.00 | 0.00 | 86 | 1018.2 |
| 20260506033640 | 57 | 154 | 0.9 | 0.9 | 0.00 | 0.00 | 0.00 | 86 | 1018.1 |
| 20260506033137 | 57 | 142 | 0.9 | 1.7 | 0.00 | 0.00 | 0.00 | 85 | 1018.0 |
| 20260506032634 | 57 | 140 | 0.9 | 1.7 | 0.00 | 0.00 | 0.00 | 85 | 1018.0 |
| 20260506032131 | 57 | 157 | 0.9 | 1.7 | 0.00 | 0.00 | 0.00 | 84 | 1018.0 |
| 20260506031628 | 58 | 136 | 1.7 | 1.7 | 0.00 | 0.00 | 0.00 | 83 | 1017.8 |
| 20260506031125 | 58 | 141 | 0.9 | 0.9 | 0.00 | 0.00 | 0.00 | 82 | 1018.0 |
| 20260506030624 | 59 | 149 | 0.9 | 1.7 | 0.00 | 0.00 | 0.00 | 81 | 1017.7 |
| 20260506030120 | 59 | 152 | 1.7 | 1.7 | 0.00 | 0.00 | 0.00 | 81 | 1017.8 |
| 20260506025617 | 59 | 150 | 0.0 | 0.9 | 0.00 | 0.00 | 0.00 | 80 | 1017.8 |
| 20260506025113 | 60 | 157 | 0.9 | 0.9 | 0.00 | 0.00 | 0.00 | 79 | 1017.7 |
| 20260506024611 | 60 | 158 | 0.9 | 1.7 | 0.00 | 0.00 | 0.00 | 77 | 1017.9 |
| 20260506024107 | 61 | 166 | 0.9 | 1.7 | 0.00 | 0.00 | 0.00 | 76 | 1017.7 |
| 20260506023603 | 62 | 162 | 0.9 | 1.7 | 0.00 | 0.00 | 0.00 | 74 | 1017.7 |
| 20260506023101 | 62 | 173 | 1.7 | 1.7 | 0.00 | 0.00 | 0.00 | 72 | 1017.8 |
| 20260506022558 | 62 | 168 | 0.0 | 1.7 | 0.00 | 0.00 | 0.00 | 73 | 1017.8 |
| 20260506022055 | 62 | 172 | 0.9 | 2.6 | 0.00 | 0.00 | 0.00 | 73 | 1017.7 |
| 20260506021553 | 62 | 196 | 2.6 | 2.6 | 0.00 | 0.00 | 0.00 | 73 | 1017.7 |
| 20260506021050 | 62 | 164 | 0.9 | 2.6 | 0.00 | 0.00 | 0.00 | 71 | 1017.9 |
| 20260506020547 | 63 | 193 | 1.7 | 1.7 | 0.00 | 0.00 | 0.00 | 71 | 1017.8 |
| 20260506020044 | 63 | 190 | 0.9 | 5.2 | 0.00 | 0.00 | 0.00 | 71 | 1018.0 |
| 20260506015542 | 63 | 177 | 1.7 | 2.6 | 0.00 | 0.00 | 0.00 | 71 | 1017.8 |
| 20260506015039 | 63 | 197 | 0.9 | 1.7 | 0.00 | 0.00 | 0.00 | 71 | 1017.7 |
| 20260506014536 | 63 | 199 | 2.6 | 2.6 | 0.00 | 0.00 | 0.00 | 69 | 1017.7 |
| 20260506014031 | 63 | 209 | 2.6 | 2.6 | 0.00 | 0.00 | 0.00 | 70 | 1018.0 |
| 20260506013530 | 63 | 208 | 1.7 | 1.7 | 0.00 | 0.00 | 0.00 | 70 | 1017.7 |
| 20260506013026 | 64 | 188 | 0.9 | 1.7 | 0.00 | 0.00 | 0.00 | 68 | 1017.7 |
| 20260506012523 | 64 | 226 | 2.6 | 2.6 | 0.00 | 0.00 | 0.00 | 68 | 1017.8 |
| 20260506012020 | 64 | 212 | 0.9 | 1.7 | 0.00 | 0.00 | 0.00 | 68 | 1017.9 |
| 20260506011517 | 64 | 211 | 1.7 | 2.6 | 0.00 | 0.00 | 0.00 | 67 | 1018.1 |
| 20260506011014 | 64 | 164 | 0.9 | 2.6 | 0.00 | 0.00 | 0.00 | 67 | 1017.9 |
| 20260506010513 | 65 | 196 | 1.7 | 4.3 | 0.00 | 0.00 | 0.00 | 67 | 1017.8 |
| 20260506010009 | 65 | 181 | 2.6 | 4.3 | 0.00 | 0.00 | 0.00 | 67 | 1017.9 |
| 20260506005507 | 65 | 165 | 0.9 | 1.7 | 0.00 | 0.00 | 0.00 | 67 | 1018.0 |
| 20260506005001 | 64 | 171 | 2.6 | 4.3 | 0.00 | 0.00 | 0.00 | 67 | 1018.0 |
| 20260506004500 | 64 | 162 | 2.6 | 2.6 | 0.00 | 0.00 | 0.00 | 67 | 1017.9 |
| 20260506003955 | 65 | 161 | 2.6 | 5.2 | 0.00 | 0.00 | 0.00 | 66 | 1018.1 |
| 20260506003452 | 65 | 185 | 2.6 | 2.6 | 0.00 | 0.00 | 0.00 | 67 | 1018.1 |
| 20260506002948 | 65 | 188 | 2.6 | 4.3 | 0.00 | 0.00 | 0.00 | 65 | 1018.2 |
| 20260506002445 | 65 | 152 | 3.5 | 5.2 | 0.00 | 0.00 | 0.00 | 66 | 1018.2 |
| 20260506001940 | 64 | 181 | 1.7 | 2.6 | 0.00 | 0.00 | 0.00 | 67 | 1018.2 |
| 20260506001437 | 65 | 176 | 2.6 | 4.3 | 0.00 | 0.00 | 0.00 | 67 | 1018.1 |
| 20260506000935 | 65 | 172 | 1.7 | 5.2 | 0.00 | 0.00 | 0.00 | 67 | 1018.2 |
| 20260506000432 | 65 | 226 | 2.6 | 7.0 | 0.00 | 0.00 | 0.00 | 66 | 1018.3 |
| 20260505235929 | 65 | 191 | 3.5 | 5.2 | 0.00 | 0.00 | 0.00 | 66 | 1018.2 |
| 20260505235427 | 65 | 179 | 0.9 | 2.6 | 0.00 | 0.00 | 0.00 | 67 | 1018.2 |
| 20260505234923 | 64 | 180 | 0.9 | 1.7 | 0.00 | 0.00 | 0.00 | 68 | 1018.4 |
| 20260505234421 | 64 | 204 | 3.5 | 4.3 | 0.00 | 0.00 | 0.00 | 68 | 1018.4 |
| 20260505233917 | 65 | 211 | 1.7 | 2.6 | 0.00 | 0.00 | 0.00 | 67 | 1018.4 |
| 20260505233415 | 64 | 215 | 2.6 | 4.3 | 0.00 | 0.00 | 0.00 | 68 | 1018.5 |
| 20260505232913 | 64 | 203 | 3.5 | 5.2 | 0.00 | 0.00 | 0.00 | 68 | 1018.6 |
| 20260505232411 | 64 | 180 | 1.7 | 5.2 | 0.00 | 0.00 | 0.00 | 68 | 1018.6 |
| 20260505231907 | 64 | 188 | 2.6 | 9.6 | 0.00 | 0.00 | 0.00 | 67 | 1018.8 |
| 20260505231405 | 64 | 207 | 3.5 | 5.2 | 0.00 | 0.00 | 0.00 | 67 | 1018.8 |
| 20260505230903 | 64 | 156 | 2.6 | 7.0 | 0.00 | 0.00 | 0.00 | 67 | 1018.7 |
| 20260505230400 | 63 | 170 | 1.7 | 5.2 | 0.00 | 0.00 | 0.00 | 68 | 1018.5 |
| 20260505225856 | 63 | 208 | 2.6 | 6.1 | 0.00 | 0.00 | 0.00 | 69 | 1019.0 |
| 20260505225354 | 63 | 172 | 2.6 | 4.3 | 0.00 | 0.00 | 0.00 | 70 | 1018.8 |
| 20260505224849 | 62 | 200 | 2.6 | 4.3 | 0.00 | 0.00 | 0.00 | 70 | 1018.6 |
| 20260505224347 | 62 | 184 | 1.7 | 4.3 | 0.00 | 0.00 | 0.00 | 71 | 1019.0 |
| 20260505223843 | 62 | 186 | 3.5 | 6.1 | 0.00 | 0.00 | 0.00 | 70 | 1018.9 |
| 20260505223340 | 63 | 186 | 2.6 | 5.2 | 0.00 | 0.00 | 0.00 | 70 | 1018.9 |
| 20260505222836 | 63 | 184 | 0.9 | 1.7 | 0.00 | 0.00 | 0.00 | 70 | 1019.0 |
| 20260505222332 | 62 | 178 | 4.3 | 7.0 | 0.00 | 0.00 | 0.00 | 70 | 1019.1 |
| 20260505221830 | 61 | 197 | 0.9 | 4.3 | 0.00 | 0.00 | 0.00 | 72 | 1018.9 |
| 20260505221326 | 61 | 142 | 2.6 | 4.3 | 0.00 | 0.00 | 0.00 | 72 | 1019.0 |
| 20260505220823 | 62 | 172 | 2.6 | 5.2 | 0.00 | 0.00 | 0.00 | 71 | 1019.1 |
| 20260505220320 | 61 | 149 | 2.6 | 2.6 | 0.00 | 0.00 | 0.00 | 72 | 1019.4 |
| 20260505215818 | 61 | 194 | 1.7 | 4.3 | 0.00 | 0.00 | 0.00 | 74 | 1019.2 |
| 20260505215316 | 61 | 213 | 1.7 | 4.3 | 0.00 | 0.00 | 0.00 | 72 | 1019.5 |
| 20260505214814 | 61 | 172 | 3.5 | 5.2 | 0.00 | 0.00 | 0.00 | 72 | 1019.2 |
| 20260505214311 | 61 | 175 | 4.3 | 6.1 | 0.00 | 0.00 | 0.00 | 72 | 1019.3 |
| 20260505213808 | 61 | 178 | 11.3 | 13.9 | 0.00 | 0.00 | 0.00 | 72 | 1019.3 |
| 20260505213306 | 61 | 200 | 5.2 | 7.0 | 0.00 | 0.00 | 0.00 | 72 | 1019.4 |
| 20260505212801 | 61 | 200 | 4.3 | 7.0 | 0.00 | 0.00 | 0.00 | 72 | 1019.4 |
| 20260505212259 | 61 | 187 | 5.2 | 7.8 | 0.00 | 0.00 | 0.00 | 73 | 1019.4 |
| 20260505211755 | 60 | 156 | 4.3 | 7.0 | 0.00 | 0.00 | 0.00 | 73 | 1019.0 |
| 20260505211253 | 60 | 190 | 5.2 | 8.7 | 0.00 | 0.00 | 0.00 | 74 | 1019.3 |
| 20260505210749 | 60 | 214 | 5.2 | 7.0 | 0.00 | 0.00 | 0.00 | 74 | 1019.4 |
| 20260505210246 | 60 | 164 | 4.3 | 6.1 | 0.00 | 0.00 | 0.00 | 74 | 1019.5 |
| 20260505205743 | 60 | 166 | 4.3 | 6.1 | 0.00 | 0.00 | 0.00 | 74 | 1019.5 |
| 20260505205241 | 60 | 174 | 1.7 | 5.2 | 0.00 | 0.00 | 0.00 | 74 | 1019.4 |
| 20260505204737 | 60 | 180 | 1.7 | 4.3 | 0.00 | 0.00 | 0.00 | 75 | 1019.6 |
| 20260505204236 | 60 | 156 | 0.9 | 5.2 | 0.00 | 0.00 | 0.00 | 74 | 1019.6 |
| 20260505203732 | 60 | 150 | 3.5 | 5.2 | 0.00 | 0.00 | 0.00 | 74 | 1019.5 |
| 20260505203229 | 60 | 155 | 0.0 | 2.6 | 0.00 | 0.00 | 0.00 | 75 | 1019.3 |
| 20260505202725 | 59 | 201 | 3.5 | 4.3 | 0.00 | 0.00 | 0.00 | 76 | 1019.5 |
| 20260505202221 | 59 | 235 | 5.2 | 7.8 | 0.00 | 0.00 | 0.00 | 76 | 1019.5 |
| 20260505201718 | 59 | 183 | 0.9 | 4.3 | 0.00 | 0.00 | 0.00 | 76 | 1019.3 |
| 20260505201216 | 59 | 187 | 0.9 | 2.6 | 0.00 | 0.00 | 0.00 | 76 | 1019.5 |
| 20260505200714 | 59 | 169 | 1.7 | 4.3 | 0.00 | 0.00 | 0.00 | 76 | 1019.5 |
| 20260505200210 | 59 | 149 | 2.6 | 2.6 | 0.00 | 0.00 | 0.00 | 76 | 1019.5 |
| 20260505195706 | 59 | 152 | 0.9 | 2.6 | 0.00 | 0.00 | 0.00 | 77 | 1019.3 |
| 20260505195204 | 59 | 167 | 0.0 | 4.3 | 0.00 | 0.00 | 0.00 | 77 | 1019.5 |
| 20260505194701 | 58 | 207 | 2.6 | 2.6 | 0.00 | 0.00 | 0.00 | 78 | 1019.4 |
| 20260505194157 | 58 | 242 | 3.5 | 7.0 | 0.00 | 0.00 | 0.00 | 77 | 1019.6 |
| 20260505193653 | 58 | 199 | 4.3 | 6.1 | 0.00 | 0.00 | 0.00 | 78 | 1019.4 |
| 20260505193151 | 58 | 227 | 2.6 | 6.1 | 0.00 | 0.00 | 0.00 | 78 | 1019.6 |
| 20260505192649 | 58 | 156 | 1.7 | 2.6 | 0.00 | 0.00 | 0.00 | 78 | 1019.5 |
| 20260505192146 | 58 | 199 | 2.6 | 4.3 | 0.00 | 0.00 | 0.00 | 78 | 1019.5 |
| 20260505191645 | 58 | 211 | 1.7 | 5.2 | 0.00 | 0.00 | 0.00 | 79 | 1019.6 |
| 20260505191143 | 58 | 163 | 1.7 | 5.2 | 0.00 | 0.00 | 0.00 | 79 | 1019.5 |
| 20260505190638 | 58 | 240 | 2.6 | 2.6 | 0.00 | 0.00 | 0.00 | 79 | 1019.4 |
| 20260505190133 | 58 | 243 | 4.3 | 7.0 | 0.00 | 0.00 | 0.00 | 79 | 1019.4 |
| 20260505185630 | 58 | 229 | 2.6 | 4.3 | 0.00 | 0.00 | 0.00 | 79 | 1019.4 |
| 20260505185126 | 57 | 178 | 2.6 | 4.3 | 0.00 | 0.00 | 0.00 | 80 | 1019.3 |
| 20260505184623 | 57 | 139 | 4.3 | 5.2 | 0.00 | 0.00 | 0.00 | 80 | 1019.4 |
| 20260505184120 | 57 | 124 | 0.9 | 1.7 | 0.00 | 0.00 | 0.00 | 81 | 1019.4 |
| 20260505183616 | 57 | 211 | 2.6 | 4.3 | 0.00 | 0.00 | 0.00 | 80 | 1019.5 |
| 20260505183114 | 57 | 216 | 1.7 | 1.7 | 0.00 | 0.00 | 0.00 | 80 | 1019.5 |
| 20260505182610 | 57 | 177 | 2.6 | 4.3 | 0.00 | 0.00 | 0.00 | 81 | 1019.2 |
| 20260505182107 | 57 | 186 | 3.5 | 5.2 | 0.00 | 0.00 | 0.00 | 80 | 1019.3 |
| 20260505181604 | 57 | 201 | 3.5 | 5.2 | 0.00 | 0.00 | 0.00 | 80 | 1019.2 |
| 20260505181101 | 57 | 211 | 0.9 | 4.3 | 0.00 | 0.00 | 0.00 | 81 | 1019.4 |
| 20260505180557 | 57 | 144 | 2.6 | 5.2 | 0.00 | 0.00 | 0.00 | 80 | 1019.5 |
| 20260505180055 | 57 | 180 | 1.7 | 2.6 | 0.00 | 0.00 | 0.00 | 80 | 1019.2 |
| 20260505175550 | 57 | 159 | 1.7 | 2.6 | 0.00 | 0.00 | 0.00 | 81 | 1019.2 |
| 20260505175047 | 57 | 209 | 1.7 | 2.6 | 0.00 | 0.00 | 0.00 | 80 | 1019.5 |
| 20260505174544 | 57 | 185 | 0.9 | 2.6 | 0.00 | 0.00 | 0.00 | 81 | 1019.2 |
| 20260505174039 | 57 | 167 | 0.9 | 2.6 | 0.00 | 0.00 | 0.00 | 81 | 1019.3 |
| 20260505173536 | 57 | 164 | 1.7 | 1.7 | 0.00 | 0.00 | 0.00 | 81 | 1019.2 |
| 20260505173033 | 57 | 136 | 0.9 | 1.7 | 0.00 | 0.00 | 0.00 | 81 | 1019.2 |
| 20260505172531 | 57 | 167 | 0.9 | 1.7 | 0.00 | 0.00 | 0.00 | 81 | 1019.1 |
| 20260505172027 | 57 | 160 | 1.7 | 2.6 | 0.00 | 0.00 | 0.00 | 81 | 1019.3 |
| 20260505171522 | 57 | 161 | 0.9 | 1.7 | 0.00 | 0.00 | 0.00 | 81 | 1019.2 |
| 20260505171019 | 57 | 162 | 0.0 | 0.9 | 0.00 | 0.00 | 0.00 | 82 | 1019.2 |
| 20260505170516 | 57 | 170 | 0.0 | 0.9 | 0.00 | 0.00 | 0.00 | 82 | 1019.0 |
| 20260505170012 | 56 | 157 | 0.0 | 0.9 | 0.00 | 0.00 | 0.00 | 82 | 1019.0 |
| 20260505165507 | 56 | 163 | 0.0 | 1.7 | 0.00 | 0.00 | 0.00 | 82 | 1019.0 |
| 20260505165003 | 56 | 196 | 1.7 | 1.7 | 0.00 | 0.00 | 0.00 | 82 | 1019.1 |
| 20260505164500 | 56 | 188 | 2.6 | 2.6 | 0.00 | 0.00 | 0.00 | 82 | 1019.2 |
| 20260505163958 | 56 | 206 | 1.7 | 2.6 | 0.00 | 0.00 | 0.00 | 82 | 1018.9 |
| 20260505163456 | 56 | 198 | 1.7 | 2.6 | 0.00 | 0.00 | 0.00 | 82 | 1019.1 |
| 20260505162956 | 56 | 174 | 0.9 | 1.7 | 0.00 | 0.00 | 0.00 | 82 | 1019.0 |
| 20260505162450 | 56 | 171 | 0.9 | 1.7 | 0.00 | 0.00 | 0.00 | 82 | 1019.0 |
| 20260505161947 | 56 | 173 | 0.9 | 0.9 | 0.00 | 0.00 | 0.00 | 82 | 1018.9 |
| 20260505161444 | 56 | 165 | 1.7 | 1.7 | 0.00 | 0.00 | 0.00 | 82 | 1018.8 |
| 20260505160942 | 56 | 186 | 0.9 | 1.7 | 0.00 | 0.00 | 0.00 | 82 | 1018.8 |
| 20260505160440 | 56 | 185 | 0.9 | 0.9 | 0.00 | 0.00 | 0.00 | 83 | 1018.5 |
| 20260505152916 | 55 | 177 | 0.9 | 0.9 | 0.00 | 0.00 | 0.00 | 84 | 1018.8 |
| 20260505152413 | 55 | 180 | 0.9 | 1.7 | 0.00 | 0.00 | 0.00 | 84 | 1018.7 |
| 20260505151907 | 55 | 161 | 0.9 | 2.6 | 0.00 | 0.00 | 0.00 | 84 | 1018.8 |
| 20260505151404 | 55 | 161 | 0.0 | 0.9 | 0.00 | 0.00 | 0.00 | 84 | 1018.7 |
| 20260505150902 | 55 | 195 | 1.7 | 2.6 | 0.00 | 0.00 | 0.00 | 84 | 1018.7 |
| 20260505150359 | 55 | 196 | 2.6 | 5.2 | 0.00 | 0.00 | 0.00 | 84 | 1018.7 |
| 20260505140323 | 55 | 188 | 1.7 | 1.7 | 0.00 | 0.00 | 0.00 | 85 | 1017.8 |
| 20260505130246 | 55 | 160 | 0.9 | 0.9 | 0.00 | 0.00 | 0.00 | 85 | 1017.4 |
| 20260505124737 | 55 | 191 | 2.6 | 2.6 | 0.00 | 0.00 | 0.00 | 85 | 1017.3 |
| 20260505124233 | 55 | 165 | 1.7 | 2.6 | 0.00 | 0.00 | 0.00 | 85 | 1017.4 |
| 20260505123728 | 55 | 161 | 0.9 | 5.2 | 0.00 | 0.00 | 0.00 | 85 | 1017.3 |
| 20260505123226 | 55 | 166 | 0.9 | 2.6 | 0.00 | 0.00 | 0.00 | 85 | 1017.3 |
| 20260505122722 | 55 | 193 | 1.7 | 2.6 | 0.00 | 0.00 | 0.00 | 86 | 1017.3 |
| 20260505122220 | 55 | 163 | 1.7 | 2.6 | 0.00 | 0.00 | 0.00 | 86 | 1017.2 |
| 20260505121716 | 55 | 203 | 0.9 | 4.3 | 0.00 | 0.00 | 0.00 | 86 | 1017.2 |
| 20260505121213 | 55 | 162 | 2.6 | 4.3 | 0.00 | 0.00 | 0.00 | 86 | 1017.0 |
| 20260505120709 | 55 | 198 | 1.7 | 1.7 | 0.00 | 0.00 | 0.00 | 86 | 1017.1 |
| 20260505120205 | 55 | 170 | 2.6 | 4.3 | 0.00 | 0.00 | 0.00 | 86 | 1017.2 |
| 20260505115658 | 55 | 175 | 0.9 | 1.7 | 0.00 | 0.00 | 0.00 | 86 | 1017.1 |
| 20260505115156 | 55 | 190 | 0.9 | 5.2 | 0.00 | 0.00 | 0.00 | 86 | 1017.0 |
| 20260505114654 | 55 | 203 | 2.6 | 2.6 | 0.00 | 0.00 | 0.00 | 86 | 1017.2 |
| 20260505114149 | 55 | 210 | 3.5 | 4.3 | 0.00 | 0.00 | 0.00 | 86 | 1017.1 |
| 20260505113646 | 55 | 151 | 0.9 | 2.6 | 0.00 | 0.00 | 0.00 | 86 | 1017.0 |
| 20260505113143 | 55 | 184 | 1.7 | 2.6 | 0.00 | 0.00 | 0.00 | 86 | 1017.0 |
| 20260505112639 | 55 | 131 | 2.6 | 5.2 | 0.00 | 0.00 | 0.00 | 86 | 1017.1 |
| 20260505112138 | 55 | 157 | 1.7 | 4.3 | 0.00 | 0.00 | 0.00 | 86 | 1016.9 |
| 20260505111637 | 55 | 175 | 1.7 | 1.7 | 0.00 | 0.00 | 0.00 | 86 | 1017.2 |
| 20260505111133 | 55 | 192 | 0.9 | 2.6 | 0.00 | 0.00 | 0.00 | 86 | 1017.0 |
| 20260505110629 | 55 | 129 | 4.3 | 6.1 | 0.00 | 0.00 | 0.00 | 86 | 1016.9 |
| 20260505110127 | 55 | 203 | 1.7 | 4.3 | 0.00 | 0.00 | 0.00 | 86 | 1016.8 |
| 20260505102102 | 55 | 202 | 4.3 | 5.2 | 0.00 | 0.00 | 0.00 | 86 | 1016.7 |
| 20260505101601 | 55 | 167 | 3.5 | 5.2 | 0.00 | 0.00 | 0.00 | 86 | 1016.7 |
| 20260505101057 | 55 | 149 | 3.5 | 7.0 | 0.00 | 0.00 | 0.00 | 86 | 1016.4 |
| 20260505100553 | 54 | 183 | 1.7 | 5.2 | 0.00 | 0.00 | 0.00 | 87 | 1016.5 |
| 20260505100050 | 54 | 218 | 4.3 | 5.2 | 0.00 | 0.00 | 0.00 | 87 | 1016.4 |
| 20260505095546 | 54 | 206 | 2.6 | 5.2 | 0.00 | 0.00 | 0.00 | 87 | 1016.4 |
| 20260505095043 | 55 | 174 | 2.6 | 6.1 | 0.00 | 0.00 | 0.00 | 87 | 1016.3 |
| 20260505094539 | 55 | 179 | 2.6 | 6.1 | 0.00 | 0.00 | 0.00 | 87 | 1016.5 |
| 20260505094036 | 55 | 181 | 2.6 | 7.0 | 0.00 | 0.00 | 0.00 | 86 | 1016.5 |
| 20260505093532 | 55 | 221 | 4.3 | 7.0 | 0.00 | 0.00 | 0.00 | 86 | 1016.3 |
| 20260505093030 | 55 | 169 | 3.5 | 7.8 | 0.00 | 0.00 | 0.00 | 86 | 1016.3 |
| 20260505092527 | 55 | 238 | 4.3 | 6.1 | 0.00 | 0.00 | 0.00 | 87 | 1016.3 |
| 20260505092025 | 55 | 151 | 2.6 | 6.1 | 0.00 | 0.00 | 0.00 | 87 | 1016.5 |
| 20260505091522 | 55 | 209 | 4.3 | 6.1 | 0.00 | 0.00 | 0.00 | 87 | 1016.3 |
| 20260505091020 | 55 | 185 | 4.3 | 7.8 | 0.00 | 0.00 | 0.00 | 87 | 1016.2 |
| 20260505090518 | 55 | 193 | 2.6 | 4.3 | 0.00 | 0.00 | 0.00 | 87 | 1016.3 |
| 20260505090015 | 55 | 212 | 2.6 | 7.8 | 0.00 | 0.00 | 0.00 | 87 | 1016.1 |
| 20260505085513 | 55 | 220 | 5.2 | 7.8 | 0.00 | 0.00 | 0.00 | 87 | 1016.0 |
| 20260505085011 | 55 | 171 | 2.6 | 4.3 | 0.00 | 0.00 | 0.00 | 87 | 1016.1 |
| 20260505084509 | 55 | 210 | 2.6 | 4.3 | 0.00 | 0.00 | 0.00 | 87 | 1015.9 |
| 20260505084007 | 55 | 197 | 2.6 | 5.2 | 0.00 | 0.00 | 0.00 | 87 | 1016.2 |
| 20260505083504 | 55 | 215 | 2.6 | 6.1 | 0.00 | 0.00 | 0.00 | 86 | 1016.1 |
| 20260505083000 | 55 | 201 | 3.5 | 5.2 | 0.00 | 0.00 | 0.00 | 86 | 1016.0 |
| 20260505082455 | 55 | 182 | 2.6 | 7.0 | 0.00 | 0.00 | 0.00 | 87 | 1016.0 |
| 20260505081953 | 55 | 197 | 2.6 | 5.2 | 0.00 | 0.00 | 0.00 | 87 | 1016.0 |
| 20260505081450 | 55 | 196 | 1.7 | 5.2 | 0.00 | 0.00 | 0.00 | 87 | 1016.0 |
| 20260505080946 | 55 | 168 | 1.7 | 4.3 | 0.00 | 0.00 | 0.00 | 87 | 1016.0 |
| 20260505080442 | 55 | 196 | 4.3 | 6.1 | 0.00 | 0.00 | 0.00 | 87 | 1015.6 |
| 20260505075938 | 55 | 185 | 0.9 | 5.2 | 0.00 | 0.00 | 0.00 | 87 | 1015.8 |
| 20260505075435 | 55 | 172 | 0.9 | 2.6 | 0.00 | 0.00 | 0.00 | 87 | 1015.8 |
| 20260505074933 | 55 | 149 | 0.9 | 1.7 | 0.00 | 0.00 | 0.00 | 87 | 1015.8 |
| 20260505074430 | 55 | 172 | 0.9 | 1.7 | 0.00 | 0.00 | 0.00 | 87 | 1015.8 |
| 20260505073926 | 55 | 184 | 1.7 | 2.6 | 0.00 | 0.00 | 0.00 | 86 | 1015.6 |
| 20260505073424 | 55 | 210 | 1.7 | 1.7 | 0.00 | 0.00 | 0.00 | 86 | 1015.6 |
| 20260505072921 | 55 | 209 | 2.6 | 2.6 | 0.00 | 0.00 | 0.00 | 86 | 1015.6 |
| 20260505072417 | 55 | 144 | 0.9 | 1.7 | 0.00 | 0.00 | 0.00 | 86 | 1015.7 |
| 20260505071914 | 55 | 188 | 2.6 | 4.3 | 0.00 | 0.00 | 0.00 | 86 | 1015.7 |
| 20260505071410 | 55 | 221 | 2.6 | 4.3 | 0.00 | 0.00 | 0.00 | 86 | 1015.5 |
| 20260505070908 | 55 | 191 | 1.7 | 4.3 | 0.00 | 0.00 | 0.00 | 86 | 1015.5 |
| 20260505070404 | 55 | 176 | 0.9 | 2.6 | 0.00 | 0.00 | 0.00 | 86 | 1015.3 |
| 20260505065900 | 55 | 181 | 1.7 | 2.6 | 0.00 | 0.00 | 0.00 | 86 | 1015.2 |
| 20260505065357 | 55 | 228 | 2.6 | 2.6 | 0.00 | 0.00 | 0.00 | 86 | 1015.1 |
| 20260505064854 | 55 | 169 | 2.6 | 4.3 | 0.00 | 0.00 | 0.00 | 86 | 1015.1 |
| 20260505064351 | 55 | 219 | 2.6 | 5.2 | 0.00 | 0.00 | 0.00 | 86 | 1015.2 |
| 20260505063849 | 55 | 154 | 2.6 | 4.3 | 0.00 | 0.00 | 0.00 | 86 | 1015.3 |
| 20260505063344 | 55 | 162 | 1.7 | 2.6 | 0.00 | 0.00 | 0.00 | 86 | 1015.3 |
| 20260505062841 | 55 | 161 | 2.6 | 4.3 | 0.00 | 0.00 | 0.00 | 86 | 1015.2 |
| 20260505062339 | 55 | 199 | 1.7 | 1.7 | 0.00 | 0.00 | 0.00 | 86 | 1015.0 |
| 20260505061835 | 55 | 157 | 2.6 | 6.1 | 0.00 | 0.00 | 0.00 | 86 | 1015.1 |
| 20260505061334 | 55 | 150 | 2.6 | 4.3 | 0.00 | 0.00 | 0.00 | 86 | 1015.0 |
| 20260505060831 | 55 | 202 | 2.6 | 4.3 | 0.00 | 0.00 | 0.00 | 85 | 1014.7 |
| 20260505060327 | 56 | 145 | 1.7 | 5.2 | 0.00 | 0.00 | 0.00 | 85 | 1014.8 |
| 20260505055823 | 56 | 212 | 4.3 | 5.2 | 0.00 | 0.00 | 0.00 | 85 | 1014.8 |
| 20260505055319 | 56 | 177 | 1.7 | 7.0 | 0.00 | 0.00 | 0.00 | 85 | 1014.8 |
| 20260505054817 | 56 | 212 | 3.5 | 5.2 | 0.00 | 0.00 | 0.00 | 84 | 1014.8 |
| 20260505054314 | 56 | 198 | 3.5 | 7.0 | 0.00 | 0.00 | 0.00 | 84 | 1014.8 |
| 20260505053813 | 56 | 148 | 2.6 | 2.6 | 0.00 | 0.00 | 0.00 | 84 | 1014.6 |
| 20260505053309 | 56 | 188 | 2.6 | 4.3 | 0.00 | 0.00 | 0.00 | 84 | 1014.7 |
| 20260505052806 | 57 | 150 | 1.7 | 5.2 | 0.00 | 0.00 | 0.00 | 84 | 1014.6 |
| 20260505052304 | 57 | 161 | 1.7 | 4.3 | 0.00 | 0.00 | 0.00 | 83 | 1014.7 |
| 20260505051800 | 57 | 148 | 1.7 | 4.3 | 0.00 | 0.00 | 0.00 | 83 | 1014.5 |
| 20260505051258 | 57 | 213 | 2.6 | 4.3 | 0.00 | 0.00 | 0.00 | 83 | 1014.6 |
| 20260505050755 | 57 | 189 | 2.6 | 4.3 | 0.00 | 0.00 | 0.00 | 83 | 1014.3 |
| 20260505050254 | 57 | 199 | 2.6 | 5.2 | 0.00 | 0.00 | 0.00 | 82 | 1014.3 |